sat.trackr.live / text

‹ back to catalog

COSMOS 2451

NORAD 35498 · 2009-036A

PAYLOAD ACTIVE UNKNOWN

§ Identity

Operator
Country
CIS
Launch date
2009-07-06
Launch site
PLMSC
Launch vehicle
Mass (kg)
RCS (m²)
0.78

External: N2YO · Heavens-Above · Gunter

§ Orbital elements

Epoch: 2026-09-20T03:39:18.867744Z

Period
116.05 min
Inclination
82.4903°
Eccentricity
0.0006807
Mean motion
12.40872121 rev/d
Perigee alt
1,497.5 km
Apogee alt
1,508.3 km
Semi-major
7,881.0 km
B*
1.9479e-5
RAAN
33.4147°
Arg perigee
12.6113°
Mean anomaly
347.5135°
Rev number
77,942

§ Raw data

COSMOS 24511 35498U 09036A   26263.15230171  .00000012  00000+0  19479-4 0  99922 35498  82.4903  33.4147 0006807  12.6113 347.5135 12.40872121779429

JSON: /api/v1/satellites/35498 · /tle

For live sub-satellite position, see the globe view (requires WebGL).

§ Visibility from observer

Set your observer location to see the next 7 days of passes ≥ 10°. The values pass through the URL so the page stays shareable.

No JS? Fill the form by hand. The geolocation button needs JavaScript.